DELTA 1 DEB, 42644

Orbit data source: Space-Track

DELTA 1 DEB, 42644 is space debris in SSO originally from a launch on Thu, 12 Jun 1975 UTC launched from the Air Force Western Test Range (AFWTR). Debris objects in space refer to the collection of defunct objects orbiting the Earth. Examples of debris include non-operational satellites, rocket bodies, and fragments generated from explosions, collisions, or faulty payload assembly.

Loading next visibility...
Identifier
42644, 1975-052MD
Orbit
SSO
Country
Flag of USUS
Related business
Manufacturer
Unknown
Mission
Spacecraft
Bus & Motor
Unknown
Mass
Unknown
Launch date (UTC)
1975-06-12 (51 years ago)
Launch vehicle
Unknown
Launch site
Air Force Western Test Range (AFWTR)
Object type
Payload
Rocket body
Debris
Shape & HBR
Unknown shape, 0.1 m
Radar Cross Section
Small (<0.1 m²)

Expand to show TLE details & history
Last TLE update: 1 week ago

TLE from 1 week ago
0 DELTA 1 DEB
1 42644U 75052MD  26165.58300719  .00000081  00000-0  28969-3 0  9998
2 42644  99.6239 117.6421 0157983 171.9125 188.4593 13.17291332255003
Epoch: 2026-06-14T13:59Z
TLE epoch observation values (Epoch: 2026-06-14T13:59:31.821Z)
Latitude
-0.00001°
Longitude
4.87785°
Altitude
1,316.231 km
Speed
7.142 km/s
True Right ascension
07h 50m 34s
True Declination
0° 00' 00"
Sunlit
Object was in daylight at epoch
Visualization orbit readout
Latitude
Unknown
Longitude
Unknown
Altitude
Unknown
Speed
Unknown
Apparent Right ascension
Unknown
Apparent Declination
Unknown
Sunlit
N/A
Visualization observer readout
Local Sidereal Time
21:39:44
Azimuth
Unknown
Elevation
Unknown
Doppler factor
Unknown
Orbital elements
Apogee altitude
1,312.026 km
Perigee altitude
1,072.822 km
Semi-major axis
7,570.561 km
Eccentricity
0.0158
Inclination
99.6239°
RAAN
117.6421°
Arg. of periapsis
171.9125°
True anomaly
188.19809°
Mean anomaly
188.4593°
Eccentric anomaly
188.32819°
Mean motion
3.29497 °/min
Orbital period
109.26 mins
BSTAR
0.00028969
Loading maneuver chart data...
Computing Atmospheric mass density...
Loading historical data...
Loading historical data...
Loading historical data...
Loading historical data...
Loading historical data...
Loading historical data...
Loading historical data...

Documentation

Showing up to 5 results
|